Location: Caltech
(34.1382°N, 118.1253°W)
Time: 18:33:35
(UTC-08:00)

KITSAT 1 - Visible Passes

Search period start: 20 December 2014 00:00
Search period end: 30 December 2014 00:00
Orbit: 1314 x 1317 km, 66.1° (Epoch: 18 December)

Date Brightness Start Highest point End Pass type
(mag) Time Alt. Az. Time Alt. Az. Time Alt. Az.
24 Dec 12.4 06:00:51 10° NNE 06:03:03 11° NE 06:05:14 10° NE visible
25 Dec 12.2 06:15:11 10° N 06:19:58 16° NE 06:24:43 10° ENE visible
28 Dec 12.4 05:10:08 10° NNE 05:12:00 11° NE 05:13:51 10° NE visible
29 Dec 12.3 05:24:17 10° N 05:28:56 16° NE 05:33:33 10° ENE visible
